Orbital Elements at Epoch 2459200.5 (2020-Dec-17.0) TDB
Reference: JPL 41 (heliocentric ecliptic J2000)
Element | Value | Uncertainty (1-sigma) | Units |
e | .1227727683052921 | 1.8878e-08 | |
a | 2.622457670808413 | 1.0942e-08 | au |
q | 2.300491282799816 | 4.8291e-08 | au |
i | 13.16598806756474 | 5.0356e-07 | deg |
node | 210.1297241279012 | 3.6771e-06 | deg |
peri | 56.29627444226086 | 1.1171e-05 | deg |
M | 143.155346174022 | 9.4532e-06 | deg |
tp | 2458583.668948633677 (2019-Apr-10.16894863) | 3.9229e-05 | TDB |
period | 1551.176288044021 4.25 | 9.7084e-06 2.658e-08 | d yr |
n | .2320819385744655 | 1.4525e-09 | deg/d |
Q | 2.94442405881701 | 1.2286e-08 | au |
|
| | Orbit Determination Parameters
Additional Information
|